Wind_Speed
38 38 39 39 37 37 38 38 40 39 38 37 38 39 39 40 39 39 39 39 39 39 39 39 39 39 41 43 44 44 44 44 45 47 48 49 50 50 51 52 53 54 54 55
38 38 38 38 36 37 38 38 39 38 37 36 38 39 39 40 39 39 39 39 39 38 38 38 39 39 41 42 43 43 44 44 45 46 47 48 49 49 50 50 51 52 53 53
39 38 38 38 36 36 38 38 38 38 37 36 37 37 38 39 39 39 39 39 39 39 38 38 38 39 41 41 41 41 42 43 44 45 47 48 49 49 49 50 50 50 51 52
39 39 39 37 36 36 37 37 37 37 37 37 37 37 38 39 39 39 39 39 38 38 38 38 38 39 40 40 40 40 40 40 41 43 44 45 46 47 47 47 48 49 49 50
38 39 39 36 36 36 37 36 36 36 35 35 36 37 38 39 39 39 39 39 38 39 39 38 38 38 38 38 38 39 39 38 39 41 42 43 44 44 44 45 46 46 47 49
37 38 38 36 36 35 37 36 35 35 35 36 37 37 37 38 39 39 39 39 38 38 38 38 37 36 35 35 36 36 36 37 38 39 39 40 41 42 43 44 44 45 46 46
36 37 37 36 36 36 36 36 36 35 35 36 37 38 38 38 38 38 38 38 38 38 38 37 36 35 35 34 35 35 36 37 37 38 39 40 40 42 43 43 44 45 45 46
35 36 35 35 36 36 36 36 35 34 35 36 36 37 38 38 38 37 37 37 38 37 37 36 36 35 34 33 34 35 35 36 37 37 38 38 39 40 42 43 44 44 44 45
36 36 35 35 35 36 35 35 34 34 34 35 36 36 36 36 36 36 37 37 36 36 35 34 34 33 32 31 32 32 34 35 36 37 37 37 37 38 40 41 42 42 42 43
35 34 34 34 34 33 33 33 33 34 34 35 35 35 35 35 35 35 35 35 35 35 35 34 33 32 31 31 31 32 33 34 35 36 37 37 37 38 39 39 39 40 40 40
34 33 33 33 33 33 33 33 33 33 35 35 35 35 34 34 34 34 33 32 32 32 32 32 30 30 31 32 32 32 33 33 33 34 36 36 37 38 38 38 38 38 39 40
32 32 33 32 33 33 34 34 34 34 35 35 35 35 34 34 33 32 31 31 31 31 30 30 29 30 31 32 33 33 33 33 33 33 34 35 36 36 36 36 36 36 36 37
32 32 32 32 33 33 34 34 34 35 35 35 35 35 34 34 33 33 32 32 31 31 31 30 30 30 30 31 32 32 33 33 33 33 33 33 33 34 33 33 33 33 34 34
31 32 32 32 33 33 33 33 33 33 33 33 33 33 33 33 32 32 32 31 31 30 30 29 29 29 30 30 31 31 31 32 32 33 33 32 33 32 32 31 31 31 32 33
31 31 31 31 31 32 32 32 32 32 32 32 32 33 33 33 32 31 30 30 30 30 29 29 29 29 29 29 29 29 30 30 30 30 30 31 31 30 30 30 30 31 31 32
30 30 29 30 30 30 30 30 31 31 31 32 33 33 33 32 31 30 30 30 29 29 29 29 29 29 29 29 28 27 27 28 28 28 28 28 28 28 27 28 28 27 28 28
30 29 30 30 30 30 30 30 31 31 32 32 32 32 32 32 31 31 31 30 29 29 28 28 28 28 27 27 27 26 26 27 27 27 27 26 27 26 26 26 26 25 25 26
29 29 30 30 30 30 30 31 31 32 32 32 32 32 32 31 31 31 30 29 29 29 28 28 28 27 26 26 26 26 26 26 26 26 25 25 25 24 24 24 24 24 24 24
29 29 29 30 30 30 31 31 31 32 32 32 32 32 32 32 31 30 29 28 28 28 28 28 27 27 26 26 26 26 26 26 26 25 25 24 24 24 23 23 23 23 23 23
29 29 30 30 31 31 31 31 31 32 32 32 32 31 31 30 30 29 28 28 28 28 28 28 27 27 26 26 26 26 26 25 25 25 25 25 24 24 23 23 23 23 23 23
30 30 30 30 30 30 30 30 30 31 31 31 31 30 30 30 29 29 29 29 28 28 28 27 27 27 26 26 25 26 26 25 25 25 25 25 24 24 24 24 24 24 23 23
30 30 30 30 30 30 30 30 30 30 30 30 30 30 30 30 30 29 28 28 27 27 27 27 26 26 26 26 26 26 26 26 26 26 25 25 25 24 24 24 23 23 23 23
30 30 31 31 31 30 30 30 29 29 29 29 29 28 28 28 28 27 27 26 26 26 26 26 25 25 26 26 26 25 25 26 26 25 25 25 24 24 24 24 24 23 23 23
30 31 31 31 31 30 29 29 29 29 29 28 28 27 26 26 26 26 25 24 24 25 25 25 25 25 25 25 24 24 25 25 25 25 25 25 24 24 24 24 24 24 24 23
31 31 31 30 29 29 29 28 28 28 27 27 27 27 27 26 25 24 24 24 24 24 24 24 24 24 24 24 24 25 25 25 25 25 25 25 25 25 25 25 25 24 24 24
31 31 30 29 29 29 28 28 27 27 27 27 27 27 27 26 25 24 24 24 24 24 23 23 24 24 24 24 24 24 25 25 25 25 25 25 25 25 25 24 24 24 24 24
30 30 29 28 28 27 27 27 27 27 27 27 27 27 26 26 25 25 25 24 24 24 24 24 24 23 23 24 24 24 24 24 24 24 24 24 24 24 24 23 23 23 22 22
Wind_Direction
288 288 288 289 288 287 286 287 289 290 289 288 289 289 288 288 287 287 285 283 282 281 280 278 278 279 278 276 274 271 270 270 267 265 264 264 264 265 266 266 265 264 264 263
286 287 287 288 288 287 287 288 289 291 290 289 289 288 289 289 288 286 286 285 283 283 282 281 280 278 278 277 275 271 270 270 269 267 266 266 266 267 267 266 265 264 264 263
286 286 286 287 291 289 288 288 289 291 292 291 290 289 290 290 289 288 287 287 285 284 284 283 281 279 279 278 276 273 271 270 269 269 269 269 268 268 268 266 265 265 264 264
288 287 286 290 292 291 290 290 291 291 293 292 291 291 290 290 291 290 290 289 287 286 285 284 282 281 278 277 276 274 272 271 271 271 270 269 269 269 268 267 266 266 266 265
289 289 289 289 292 294 293 292 292 293 294 293 292 292 292 291 291 292 291 290 288 288 287 285 283 282 278 277 275 275 273 272 273 272 272 270 270 270 269 267 267 267 267 265
289 289 290 292 292 294 294 294 294 294 294 295 295 294 294 293 292 292 291 290 290 289 289 287 284 282 280 278 276 276 275 275 274 274 273 272 272 272 270 269 267 267 267 266
288 288 290 291 292 293 294 296 296 295 295 295 296 294 294 294 293 293 292 291 290 289 289 287 285 282 281 279 277 278 278 277 276 276 276 276 274 272 270 270 269 268 267 266
287 286 289 290 290 291 292 294 295 295 295 295 297 297 295 295 293 292 291 290 290 289 288 287 285 283 282 280 279 280 280 280 279 278 278 278 276 274 273 272 271 270 268 266
286 286 287 288 289 289 290 293 294 295 296 296 297 298 298 297 295 293 292 290 289 288 288 287 286 285 283 282 282 283 283 283 282 281 280 279 278 277 276 274 272 270 269 268
286 285 284 285 286 287 289 291 293 294 296 297 298 298 299 298 296 295 293 291 289 288 287 286 286 285 284 284 285 285 286 285 283 283 282 280 280 280 279 276 274 272 270 268
286 285 283 283 285 286 287 289 291 293 295 297 298 298 298 299 298 295 293 292 291 290 288 287 284 285 286 287 288 288 289 287 285 285 285 283 283 282 280 279 278 274 271 269
287 286 285 284 285 286 286 287 288 290 293 295 297 298 298 298 298 295 294 294 293 293 291 288 286 287 288 289 290 290 290 290 288 287 287 286 285 285 284 282 280 276 273 269
288 288 287 286 286 287 287 288 288 290 293 295 297 298 297 297 298 297 296 296 295 294 292 291 289 289 290 290 291 291 292 292 290 289 288 288 289 289 287 284 281 278 275 272
289 289 289 288 288 288 288 289 290 291 292 294 296 297 297 297 297 297 296 296 295 294 293 293 294 293 292 292 292 293 294 294 293 292 290 290 291 292 290 287 284 282 279 276
289 289 290 290 290 289 288 288 290 292 293 294 295 297 298 298 297 296 295 295 295 295 294 294 295 295 295 294 294 294 295 296 297 295 293 293 294 294 293 291 289 288 283 278
289 289 290 290 290 289 288 289 290 292 293 294 296 298 298 298 297 297 295 294 294 295 294 294 295 295 296 296 295 296 297 298 300 300 297 297 298 296 295 295 294 292 288 283
291 291 290 289 289 290 290 291 293 294 295 295 297 298 298 298 297 297 295 295 294 294 295 294 294 294 295 296 295 295 296 297 298 300 299 298 297 296 295 295 294 292 289 286
295 293 292 291 290 290 291 292 294 296 296 296 296 297 298 298 299 298 296 294 293 293 294 295 295 294 293 294 294 295 296 298 298 299 299 299 296 295 294 293 294 291 288 285
297 294 293 292 291 291 292 293 295 296 297 297 297 297 297 298 299 299 296 293 292 292 293 293 293 293 293 293 294 295 296 296 297 297 298 299 298 296 294 293 292 291 289 286
298 297 295 293 293 293 294 295 296 297 298 298 298 297 296 298 299 299 298 296 293 292 292 292 292 292 293 293 294 295 296 297 297 297 298 299 299 297 296 294 293 292 290 287
300 299 299 297 295 295 295 296 297 298 299 299 299 298 297 297 298 298 297 295 294 293 293 291 292 293 292 293 294 296 297 296 297 297 298 298 298 297 295 294 294 293 291 288
301 299 299 299 298 296 296 297 297 298 298 299 300 299 298 298 298 297 296 294 293 293 293 292 291 291 291 292 293 294 295 296 296 296 297 297 297 296 295 294 292 291 290 288
300 299 299 298 299 298 297 297 297 298 299 300 301 301 300 299 298 296 294 293 292 292 293 293 292 292 292 292 292 293 294 294 295 295 294 295 295 294 293 292 291 290 289 288
301 300 300 299 300 299 297 296 297 298 299 301 301 302 302 301 299 298 295 294 293 293 294 294 294 294 294 294 292 292 293 293 294 294 294 294 293 292 292 291 290 289 289 288
301 301 300 299 299 299 298 297 297 298 299 300 301 301 301 300 298 298 298 297 296 296 295 295 295 295 295 295 295 294 294 294 295 295 294 293 293 292 291 290 289 288 289 289
302 301 300 299 299 299 298 297 297 297 298 298 299 300 300 300 298 297 297 297 296 295 295 295 295 295 296 296 297 297 296 296 295 296 295 295 294 294 292 292 292 290 289 289
304 304 302 300 299 299 299 298 297 297 298 298 298 299 300 300 298 297 296 296 296 295 294 293 294 295 296 296 297 297 297 296 296 297 297 297 296 296 295 294 293 292 290 289
Height
5567 5564 5561 5559 5558 5555 5551 5549 5546 5545 5542 5541 5537 5534 5531 5528 5525 5523 5520 5518 5516 5514 5512 5510 5508 5506 5504 5502 5500 5500 5499 5499 5499 5500 5500 5500 5501 5501 5502 5502 5503 5504 5505 5507
5557 5555 5551 5549 5548 5545 5542 5539 5536 5534 5532 5531 5527 5523 5520 5517 5515 5513 5510 5507 5505 5502 5500 5498 5495 5494 5492 5489 5487 5487 5486 5486 5486 5486 5486 5486 5486 5487 5487 5487 5488 5489 5490 5491
5546 5544 5540 5540 5540 5536 5533 5531 5528 5524 5523 5520 5516 5513 5510 5507 5505 5502 5499 5496 5494 5491 5489 5486 5483 5481 5479 5477 5475 5474 5473 5473 5473 5472 5472 5472 5472 5472 5472 5473 5473 5474 5475 5476
5534 5533 5531 5535 5530 5526 5523 5522 5518 5515 5513 5509 5506 5502 5499 5496 5494 5490 5488 5485 5482 5479 5477 5474 5471 5469 5467 5465 5464 5462 5461 5461 5460 5460 5459 5459 5458 5458 5458 5458 5458 5459 5460 5461
5524 5521 5520 5523 5520 5516 5513 5512 5509 5506 5503 5500 5496 5493 5490 5486 5483 5479 5476 5474 5471 5468 5465 5462 5460 5457 5455 5454 5452 5451 5450 5449 5448 5447 5446 5446 5445 5444 5444 5444 5444 5444 5445 5446
5515 5512 5511 5514 5510 5506 5504 5502 5500 5496 5493 5490 5486 5484 5482 5477 5473 5469 5466 5463 5460 5457 5454 5451 5449 5447 5445 5443 5442 5441 5440 5438 5437 5436 5434 5433 5433 5432 5431 5430 5430 5430 5431 5431
5506 5502 5502 5503 5500 5497 5496 5494 5490 5486 5483 5480 5477 5474 5471 5466 5463 5459 5456 5453 5450 5447 5444 5441 5439 5437 5435 5433 5432 5431 5430 5428 5426 5425 5423 5422 5420 5419 5418 5417 5417 5417 5418 5418
5497 5495 5497 5494 5491 5489 5487 5483 5480 5477 5474 5471 5468 5464 5460 5456 5452 5449 5446 5443 5440 5437 5435 5432 5429 5427 5426 5424 5423 5421 5420 5417 5416 5414 5412 5410 5409 5407 5406 5405 5404 5403 5403 5404
5490 5489 5487 5484 5481 5479 5477 5474 5471 5469 5466 5462 5459 5455 5451 5447 5443 5439 5436 5433 5430 5428 5426 5423 5420 5418 5416 5415 5413 5412 5409 5407 5405 5403 5401 5399 5397 5395 5393 5392 5391 5390 5390 5391
5480 5480 5477 5475 5472 5470 5468 5466 5463 5460 5457 5454 5450 5446 5442 5438 5434 5430 5427 5424 5421 5419 5416 5414 5412 5410 5408 5406 5404 5402 5400 5397 5395 5392 5390 5387 5385 5383 5381 5380 5378 5378 5377 5377
5471 5470 5468 5466 5464 5462 5459 5457 5454 5451 5448 5445 5441 5437 5434 5430 5425 5422 5418 5415 5412 5410 5407 5405 5403 5401 5400 5398 5396 5393 5390 5387 5385 5382 5379 5377 5374 5372 5370 5368 5366 5365 5364 5364
5464 5462 5459 5458 5455 5453 5450 5448 5445 5442 5439 5436 5432 5429 5425 5421 5417 5414 5410 5408 5405 5402 5399 5397 5395 5393 5391 5389 5387 5384 5381 5378 5374 5372 5369 5366 5364 5361 5358 5356 5354 5352 5352 5352
5455 5452 5450 5449 5446 5444 5441 5439 5436 5433 5430 5427 5423 5420 5416 5413 5409 5406 5403 5400 5397 5394 5392 5389 5387 5385 5383 5381 5378 5375 5372 5368 5365 5362 5359 5356 5353 5351 5348 5345 5343 5341 5340 5340
5446 5444 5442 5440 5438 5435 5432 5430 5427 5424 5421 5418 5415 5412 5408 5404 5401 5398 5395 5392 5389 5387 5384 5382 5379 5377 5374 5372 5369 5366 5363 5359 5356 5353 5350 5347 5344 5341 5338 5335 5334 5331 5330 5329
5439 5436 5434 5431 5429 5426 5424 5421 5419 5416 5413 5410 5407 5403 5399 5396 5393 5390 5387 5384 5381 5379 5376 5374 5371 5369 5366 5364 5361 5357 5354 5351 5348 5345 5341 5338 5335 5332 5329 5327 5325 5322 5321 5320
5431 5428 5425 5423 5421 5418 5415 5413 5411 5408 5405 5402 5398 5395 5391 5388 5384 5381 5378 5376 5373 5371 5369 5366 5363 5361 5358 5356 5353 5350 5347 5344 5341 5337 5334 5331 5327 5324 5322 5319 5317 5315 5312 5311
5422 5420 5417 5415 5412 5410 5408 5405 5403 5400 5397 5393 5390 5386 5383 5379 5376 5373 5370 5367 5365 5363 5360 5358 5355 5353 5350 5347 5345 5342 5340 5337 5333 5330 5327 5323 5320 5317 5315 5312 5310 5308 5305 5303
5414 5412 5409 5406 5404 5402 5399 5397 5394 5391 5388 5385 5381 5378 5375 5372 5368 5365 5362 5359 5357 5355 5352 5350 5347 5345 5342 5340 5337 5335 5332 5329 5326 5323 5320 5317 5313 5311 5308 5306 5303 5301 5299 5297
5407 5404 5401 5398 5395 5393 5391 5388 5385 5382 5379 5376 5373 5370 5366 5363 5360 5357 5354 5352 5349 5347 5345 5342 5339 5337 5334 5332 5330 5327 5325 5322 5319 5316 5313 5310 5307 5304 5302 5299 5297 5295 5293 5292
5399 5396 5393 5390 5387 5384 5382 5379 5376 5374 5371 5367 5364 5361 5358 5355 5352 5349 5346 5344 5341 5339 5337 5334 5332 5329 5327 5325 5322 5320 5317 5315 5312 5309 5307 5304 5301 5298 5296 5293 5291 5289 5288 5286
5391 5388 5385 5381 5379 5376 5373 5371 5368 5365 5362 5359 5356 5353 5350 5347 5344 5342 5339 5336 5333 5331 5329 5326 5324 5321 5319 5317 5315 5312 5310 5307 5305 5302 5300 5297 5294 5292 5289 5287 5285 5283 5281 5280
5383 5380 5377 5374 5371 5368 5365 5362 5359 5357 5354 5351 5347 5344 5341 5339 5336 5333 5330 5328 5325 5323 5321 5318 5316 5314 5312 5309 5307 5305 5303 5300 5298 5295 5293 5290 5288 5285 5283 5281 5279 5277 5275 5273
5374 5371 5368 5365 5362 5359 5356 5354 5351 5348 5345 5342 5339 5336 5333 5330 5328 5325 5323 5320 5317 5315 5313 5311 5308 5306 5304 5302 5300 5298 5295 5293 5290 5288 5286 5283 5281 5278 5276 5274 5272 5270 5268 5267
5366 5363 5359 5356 5353 5351 5348 5345 5342 5340 5337 5334 5331 5328 5325 5323 5320 5317 5315 5312 5310 5308 5305 5303 5301 5299 5297 5294 5292 5290 5288 5285 5283 5281 5278 5276 5274 5271 5269 5267 5265 5263 5262 5260
5357 5354 5351 5347 5345 5342 5339 5337 5334 5332 5329 5326 5324 5321 5318 5315 5313 5310 5308 5305 5303 5300 5298 5296 5294 5292 5289 5287 5285 5283 5280 5278 5276 5273 5271 5269 5266 5264 5262 5260 5258 5256 5254 5253
5349 5345 5342 5339 5336 5333 5331 5329 5326 5324 5321 5319 5316 5313 5310 5308 5305 5303 5301 5298 5296 5294 5291 5289 5287 5285 5282 5280 5278 5275 5273 5271 5268 5266 5264 5261 5259 5257 5255 5253 5251 5249 5247 5245
5340 5337 5334 5331 5328 5325 5323 5321 5318 5316 5313 5311 5308 5306 5303 5300 5298 5296 5293 5291 5289 5286 5284 5282 5280 5277 5275 5273 5270 5268 5266 5263 5261 5259 5256 5254 5252 5250 5247 5245 5243 5241 5240 5238